CZ-6A DEB, 54359

Orbit data source: Space-Track

CZ-6A DEB, 54359 is space debris in SSO originally from a launch on Fri, 11 Nov 2022 UTC launched from the Taiyaun Space Center, China (TSC). Debris objects in space refer to the collection of defunct objects orbiting the Earth. Examples of debris include non-operational satellites, rocket bodies, and fragments generated from explosions, collisions, or faulty payload assembly.

Loading next visibility...
Identifier
54359, 2022-151DE
Orbit
SSO
Country
Flag of CNCN / PRC
Related business
Manufacturer
SAST
Mission
Spacecraft
Bus & Motor
Unknown
Mass
Unknown
Launch date (UTC)
2022-11-11 (3 years ago)
Launch vehicle
Unknown
Launch site
Taiyaun Space Center, China (TSC)
Object type
Payload
Rocket body
Debris
Shape & HBR
Unknown shape, 0.1 m
Radar Cross Section
Small (<0.1 m²)

Expand to show TLE details & history
Last TLE update: 22 hours ago

TLE from 22 hours ago
0 CZ-6A DEB
1 54359U 22151DE  25349.89237443  .00065637  00000-0  37873-2 0  9997
2 54359  99.0023 118.9537 0060779  97.3064 263.5075 15.10500383 92918
Epoch: 2025-12-15T21:25Z
TLE epoch observation values (Epoch: 2025-12-15T21:25:01.150Z)
Latitude
0.00001°
Longitude
72.91449°
Altitude
542.704 km
Speed
7.588 km/s
True Right ascension
07h 55m 48s
True Declination
0° 00' 00"
Sunlit
Object was in full shadow at epoch
Visualization orbit readout
Latitude
Unknown
Longitude
Unknown
Altitude
Unknown
Speed
Unknown
Apparent Right ascension
Unknown
Apparent Declination
Unknown
Sunlit
N/A
Visualization observer readout
Local Sidereal Time
17:50:57
Azimuth
Unknown
Elevation
Unknown
Doppler factor
Unknown
Orbital elements
Apogee altitude
573.724 km
Perigee altitude
489.729 km
Semi-major axis
6,909.863 km
Eccentricity
0.00608
Inclination
99.0023°
RAAN
118.9537°
Arg. of periapsis
97.3064°
True anomaly
262.8161°
Mean anomaly
263.5075°
Eccentric anomaly
263.16174°
Mean motion
3.77867 °/min
Orbital period
95.27 mins
BSTAR
0.0037873
Loading maneuver chart data...
Computing Atmospheric mass density...

Documentation

Showing up to 5 results
|